Location: *
(31.2983°S, 151.4094°E)
Time: 16:49:53
(UTC+00:00)

Cosmos 2297 - Pass Details

Date: 26 November 2019
Orbit: 835 x 859 km, 71.0° (Epoch: 13 December)

Event Time Altitude Azimuth Distance (km) Brightness Sun altitude
Exits shadow 15:02:01 11° 233° (SW) 2,380 6.1 -34.3°
Drops below altitude 10° 15:03:27 10° 218° (SW) 2,469 6.4 -34.2°
Sets 15:08:02 0° 184° (S) 3,413 7.7 -33.8°
